Regional Weather Roundup
Issued by NWS Wakefield, VA

Home | Current Version | Previous Version | Graphics & Text | Print | Product List | Glossary Off
Versions: 1 2 3 4 5 6 7 8 9 10 11 12 13 14 15 16 17 18 19 20 21 22 23 24 25 26 27

000
ASUS41 KAKQ 170915
RWRAKQ

REGIONAL WEATHER ROUNDUP
NATIONAL WEATHER SERVICE WAKEFIELD VA
400 AM EST TUE JAN 17 2017

Note: "fair" indicates few or no clouds below 12,000 feet with no
significant weather and/or obstructions to visibility. * = Denotes
station may not report precipitation (e.g., rain,snow,etc.),
thunder or fog.

VAZ042-051-052>054-056-171000-
NORTHERN VIRGINIA

CITY           SKY/WX    TMP DP  RH WIND       PRES   REMARKS
WASH NATIONAL  CLOUDY    41  39  93 CALM      30.24F
DULLES         CLOUDY    40  37  89 S3        30.23F
FORT BELVOIR   MOCLDY    39  37  93 CALM      30.24S
QUANTICO       CLOUDY    40  39  97 SW5       30.25F
FREDERICKSBRG* PTCLDY    40  40 100 CALM      30.23F
STAFFORD*      CLOUDY    39  38  97 CALM      30.27F
WARRENTON      CLOUDY    42  38  88 CALM      30.22S
CULPEPER*      CLOUDY    42  41  97 CALM      30.23F
MANASSAS*      NOT AVBL
LEESBURG*      CLOUDY    43  43 100 MISG      30.23S
WINCHESTER     CLOUDY    36  34  93 CALM      30.20S FOG
FRONT ROYAL*   CLOUDY    39  39 100 CALM      30.18F
LURAY*         RAIN      45  45 100 CALM      30.19F
$$

VAZ048-049-060>072-079>083-171000-
CENTRAL AND SOUTH CENTRAL VIRGINIA

CITY           SKY/WX    TMP DP  RH WIND       PRES   REMARKS
RICHMOND       CLOUDY    41  41 100 SW5       30.25F FOG
CHESTERFIELD*  CLOUDY    43  27  52 CALM      30.26F
PETERSBURG*    MOCLDY    39  39 100 CALM      30.26F FOG
HANOVER        CLOUDY    43  40  89 S5        30.25F
TAPPAHANNOCK*  PTCLDY    42  40  92 S3        30.25F
QUINTON*       CLOUDY    42  42 100 MISG      30.25F FOG
CHARLOTTSVILLE CLOUDY    42  40  92 S3        30.19F
GORDONSVILLE*  CLOUDY    40  40  99 SW3       30.21F
ORANGE*          N/A     41  41 100 CALM      30.23F
LOUISA*        CLOUDY    45  43  93 CALM      30.21S
BUMPASS*       CLOUDY    40  40 100 CALM      30.23S
FARMVILLE*     PTCLDY    40  40 100 S3        30.20F
CREWE*         CLOUDY    42  42 100 CALM      30.22F
FORT PICKETT*  CLOUDY    42  38  88 CALM      30.23F
CHASE CITY*    CLOUDY    42  40  95 CALM      30.24F
CLARKSVILLE*   CLOUDY    43  41  93 CALM      30.24F
SOUTH HILL*    CLOUDY    42  42 100 CALM      30.30F
LAWRENCEVILLE* CLOUDY    43  41  95 CALM      30.24F
EMPORIA*       CLOUDY    41  41 100 CALM      30.28S
$$

VAZ088>098-171000-
SOUTHEAST VIRGINIA

CITY           SKY/WX    TMP DP  RH WIND       PRES   REMARKS
NORFOLK        CLOUDY    45  40  82 CALM      30.26F
VIRGINIA BEACH CLOUDY    43  39  86 CALM      30.27F
NORFOLK NAVAL  CLOUDY    45  40  82 SW3       30.28F
WEST POINT*    CLOUDY    43  40  91 SE3       30.27F
SALUDA*        CLOUDY    42  39  91 S3        30.26S
NEWPORT NEWS   CLOUDY    44  40  85 SW7       30.27S
LANGLEY AFB    CLOUDY    44  40  85 S3        30.26F
FORT EUSTIS    CLOUDY    43  39  87 CALM      30.24F
WILLIAMSBURG*  CLOUDY    45  41  87 CALM      30.27F
HR EXEC AP*    CLOUDY    45  37  76 CALM      30.26S
FRANKLIN*      CLOUDY    44  40  86 CALM      30.27F
US460-WAKEFLD  CLOUDY    44  42  93 CALM      30.26F
$$

VAZ020-022-025-037-045-171000-
WEST CENTRAL AND SOUTHWEST VIRGINIA

CITY           SKY/WX    TMP DP  RH WIND       PRES   REMARKS
STAUNTON*      CLOUDY    42  40  93 CALM      30.20F
WAYNESBORO*    CLOUDY    41  40  96 CALM      30.18F
HOT SPRINGS VA CLOUDY    50  43  76 SW12      30.15F
LYNCHBURG      CLOUDY    40  36  86 S3        30.22F
DANVILLE       MOCLDY    44  41  89 S3        30.23F
SOUTH BOSTON*  CLOUDY    41  40  95 CALM      30.23F
MARTINSVILLE   CLOUDY    47  44  90 SW3       30.24F
ROANOKE        FOG       40  40 100 CALM      30.22F VSB 1/4
BLACKSBURG     FOG       43  43 100 CALM      30.22F VSB 1
DUBLIN*        FOG       44  44 100 CALM      30.20F VSB 1/2
MARION*        FOG       45  44  96 E3        30.20F VSB 1/4
HILLSVILLE*    CLOUDY    49  49 100 S3        30.17F
RICHLANDS*     PTSUNNY  N/A N/A N/A SW5       30.14F
WISE*          CLOUDY    54  46  76 SW7       30.15S
ABINGDON*      PTCLDY    51  48  92 CALM      30.16F
$$

MDZ021>025-VAZ099-100-171000-
SOUTHERN MARYLAND AND THE DELMARVA PENINSULA

CITY           SKY/WX    TMP DP  RH WIND       PRES   REMARKS
PATUXENT RIVER CLOUDY    42  36  79 S6        30.24F
BAY BRIDGE APT CLOUDY    39  37  93 CALM      30.25S FOG
LEONARDTOWN    MOCLDY    41  36  81 S3        30.26S
DOVER          LGT RAIN  39  39 100 E5        30.24F
GEORGETOWN     CLOUDY    41  35  79 CALM      30.26F
EASTON         HVY RAIN  41  37  86 CALM      30.28F
CAMBRIDGE      CLOUDY    39  34  81 SE3       30.23F
SALISBURY      CLOUDY    41  36  82 CALM      30.26F
OCEAN CITY     CLOUDY    42  38  85 CALM      30.27S
WALLOPS ISLAND CLOUDY    42  38  85 CALM      30.27F
ACCOMACK*      CLOUDY    44  40  86 CALM      30.26F
$$

NCZ012>017-030>032-171000-
NORTH CENTRAL AND EASTERN NORTH CAROLINA

CITY           SKY/WX    TMP DP  RH WIND       PRES   REMARKS
ROANOKE RAPIDS CLOUDY    45  43  93 CALM      30.26F
RALEIGH        CLOUDY    48  44  86 SW7       30.25F
ELIZABETH CITY CLOUDY    43  40  89 N5        30.28F
AHOSKIE*         N/A     43  40  90 CALM      30.27F
EDENTON*       CLOUDY    46  43  90 CALM      30.28F
CURRITUCK*     CLOUDY    41  41 100 CALM      30.28F
KILL DEVIL HLS NOT AVBL
MANTEO         CLOUDY    42  42 100 CALM      30.28F
CAPE HATTERAS  CLOUDY    48  43  82 N5        30.27F
TARBORO*       NOT AVBL
GOLDSBORO      CLOUDY    48  47  99 CALM      30.25S
WASHINGTON     CLOUDY    44  40  86 CALM      30.27F
GREENVILLE     CLOUDY    46  43  87 CALM      30.28R
NEW BERN       CLOUDY    46  41  82 CALM      30.27F
WILMINGTON     MOCLDY    48  47  96 CALM      30.25F
$$

VAZ048-171000-
ELSEWHERE

CITY           SKY/WX    TMP DP  RH WIND       PRES   REMARKS
HARRISBURG PA  CLOUDY    35  30  82 CALM      30.22F
BALTIMORE      CLOUDY    38  37  97 CALM      30.23F
ANNAPOLIS      CLOUDY    40  37  89 E3        30.24F
ANDREWS AFB    PTCLDY    39  38  93 S3        30.22F
PHILADELPHIA   CLOUDY    39  30  70 CALM      30.26F
HENDERSON NC   CLOUDY    43  38  85 CALM      30.24F
GREENSBORO     CLOUDY    47  46  97 SW6       30.23F FOG
ROCKY MOUNT    CLOUDY    47  45  93 CALM      30.27F
$$

VAZ100-171000-
MARINE

STATION/POSITION TIME  TEMP    WIND        PRES    WAVE   SWELL
                       AIR SEA DIR/SP/G            HT/PER HT/PER
                 (UTC) (F)     (DEG/KT/KT) (MB)    (FT/S) (FT/S)
CAPE MAY NJ      0842   40 40  220/  2/  2 1025.0R
LEWES DE         0848      41     CALM     1025.0R
OCEAN-CITY-INLET 0848      42  320/  2/  2 1025.4R
WACHAPREAGUE VA  0842   43 44  230/  1/  2 1025.0F
THOMAS POINT MD  0900   40 38  170/  6/  7   N/A
GOOSES REEF MD   0900   40     190/  6/  8 1024.7    1
COVE POINT MD    0842   40     200/  6/  7 1024.5F
SOLOMONS ISLAND  0848      41  190/  5/  5   N/A
BISHOPS HEAD MD  0842   40 42  130/  6/  7 1024.4F
PINEY POINT MD   0848          180/  4/  4   N/A
POTOMAC MD       0900   41 40  200/  6/  8 1023.4    0
CAMBRIDGE MD     0842   41 38  180/  3/  4 1023.6F
LEWISETTA VA     0842   42 42  210/  7/  8 1024.0F
RAPPAHANNOCK LGT 0848          170/  5/  5 1025.2F
STINGRAY PT      0850   41     200/  6/  8 1025.2F
YORK RVR RNG VA  0842   42     180/  5/  6 1024.3F
YORKTOWN VA      0842   43 42   CALM  /  1 1024.6F
JAMESTOWN VA     0900   43 44  160/  4/  4   N/A     0
DOMINION TERM VA 0842   43     180/  4/  5 1025.0F
KIPTOPEKE VA     0848      42  130/  2/  2   N/A
CHES BAY BRIDGE  0836   43 43  170/  1/  1 1024.8F
CAPE HENRY VA    0836   43      CALM  /  1   N/A
WILLOUBY STN VA  0842   44     170/  4/  5 1025.6F
S CRANEY ISL VA  0842   44     160/  4/  4 1024.9F
CAPE HENRY BUOY  0842      47                N/A     2/11
OFFSHORE WE BUOY 0851      49                N/A     2/11   2/11
64NM E OF VA BCH 0850   54 55  350/  4/  6 1024.3F   3/ 9   2/ 9
DUCK PIER NC     0836   44 44  330/  5/  6 1024.6F
44100 DUCK FRF   0805      46                N/A     2/ 8
44056 DUCK FRF   0830      44                N/A     2/ 8
OREGON INLET NC  0836   45 48  340/  3/  5 1024.9F
HATTERAS NC      0848      52  330/  5/  5 1024.6F
DIAMOND SHLS NC  0850   56 73  360/ 10/ 12 1024.8F   3/ 8   2/ 8
CAPE LOOKOUT NC  0900   48      10/  5/  5 1024.3F
$$




USA.gov is the U.S. government's official web portal to all federal, state and local government web resources and services.